Погода в Ямусукро

Кот-д’Ивуар     6°48′35″N   5°15′02″W
темп.,
°C
ветер,
м/с
пор.,
м/с
влажн.,
%
обл.,
%
осадки,
мм/ч
давл.,
гПа
погр.,
м
1 марта, пн
пн100:00+25юз268286 3.1 1010316
03:00+24ююз168565 0.0 1008320
06:00+24ююз168881 0.0 1008344
09:00+28юз246627 0.0 1010552
12:00+37юз113823 0.0 10091792
15:00+35вюв124076 0.0 10052289
18:00+29зсз346186 0.4 1006143
21:00+27юв367695 1.8 1009304
2 марта, вт
вт200:00+25юз388695 1.8 1009386
03:00+24ююз269255 0.0 1008374
06:00+23юз269447 0.0 1008358
09:00+27юз247183 0.0 1011658
12:00+37ююв114072 0.0 10101623
15:00+36вюв343617 0.0 10062314
18:00+33юв254312 0.0 1006288
21:00+27ю49740 0.0 1009611
3 марта, ср
ср300:00+26ююз38796 0.0 1009516
03:00+24юз278322 0.0 1008435
06:00+23юз168729 0.0 1009345
09:00+28юз256874 0.0 1011727
12:00+35юз234480 0.0 10101372
15:00+38юв123042 0.0 10072808
18:00+33ююв364428 0.0 1007545
21:00+27ююз397342 1.3 1009490
4 марта, чт
чт400:00+25ююз398452 1.3 1010509
03:00+24юз288741 0.0 1008583
06:00+25зюз368650 0.0 1009607
09:00+27зюз367399 0.1 1010830
12:00+33зюз344990 0.1 10091277
15:00+38з1134100 0.0 10062316
18:00+33ю254785 0.0 1006332
21:00+26ю387943 1.9 1009337
5 марта, пт
пт500:00+25ююз278969 2.6 1009480
03:00+24ююз389391 0.0 1007490
06:00+24ююз289483 0.0 1008510
09:00+26юз368198 0.0 1010685
12:00+29зюз356799 0.1 10101003
15:00+31юз235795 0.0 10061220
18:00+30ююз136175 0.1 1007641
21:00+26ю388141 0.3 1009491